Regional Weather Roundup
Issued by NWS Binghamton, NY

Home | Current Version | Previous Version | Text Only | Print | Product List | Glossary On
Versions: 1 2 3 4 5 6 7 8 9 10 11 12 13 14 15 16 17 18 19 20 21 22 23 24 25 26 27 28
000
ASUS41 KBGM 291210
RWRBGM

REGIONAL WEATHER ROUNDUP
NATIONAL WEATHER SERVICE BINGHAMTON NY
800 AM EDT FRI APR 29 2016

Note: "fair" indicates few or no clouds below 12,000 feet with no
significant weather and/or obstructions to visibility.

* = Station(s) that does not report precipitation, such as rain,
snow, etc, also no thunder or fog.

NYZ009-015>018-022>025-036-037-044>046-055>057-062-291300
...Central New York...

CITY           SKY/WX    TMP DP  RH WIND       PRES   REMARKS
Binghamton     CLOUDY    42  36  79 E5        30.04R
Cortland       DRIZZLE   43  36  75 CALM      30.06R
Dansville      CLOUDY    42  32  67 NW5       30.06S
Elmira         CLOUDY    43  32  65 CALM      30.05S
Ithaca         LGT RAIN  41  33  73 CALM      30.06R
Hamilton       CLOUDY    45  27  49 S6        30.07R
Hornell        CLOUDY    43  32  65 CALM      30.08S
Monticello     CLOUDY    41  32  70 E8        30.10R
Norwich        LGT RAIN  43  28  56 E5        30.08S
Penn Yan       CLOUDY    41  34  76 CALM      30.06R
Rome           CLOUDY    43  22  43 SE14      30.11R
Sidney         CLOUDY    45  32  61 CALM      30.07S
Syracuse       CLOUDY    42  28  57 E8        30.08R
$$

PAZ038>040-043-044-047-048-072-291300
...Northeast Pennsylvania...

CITY           SKY/WX    TMP DP  RH WIND       PRES   REMARKS
Hazleton       CLOUDY    45  36  70 SE3       30.07R
Scranton       CLOUDY    48  39  71 VRB3      30.06R
$$
&&
KEY
WCI = Wind Chill Index
VSB = Visibility
HX  = Heat Index
$$




USA.gov is the U.S. government's official web portal to all federal, state and local government web resources and services.